User: anonymous   Login
Location: Br�ttisellen
(47.4227°N, 8.6287°E)
Time: 15:20:48
(UTC+00:00)
Language:

Cosmos 2341 Rocket - Orbit

View from above orbital plane
View from above orbital plane
View from above satellite
View from above satellite

Ground track
Ground track

The orbit data is extracted from the following two-line orbital elements,

1 24773U 97017B   21164.10990453  .00000089  00000-0  78811-4 0  9998
2 24773  82.9217  13.6595 0023707 207.3355 270.1828 13.73661257210919
Epoch (UTC): 13 June 2021 02:38:15
Eccentricity: 0.0023707
inclination: 82.9217°
perigee height: 969 km
apogee height: 1004 km
right ascension of ascending node: 13.6595°
argument of perigee: 207.3355°
revolutions per day: 13.73661257
mean anomaly at epoch: 270.1828°
orbit number at epoch: 21091

The dashed part of the orbit path shows where the satellite is in the earth's shadow,  

DLR